Regional Weather Roundup
Issued by NWS

Home | Current Version | Previous Version | Graphics & Text | Print | Product List | Glossary On
Versions: 1 2 3 4 5 6 7 8 9 10 11 12 13 14 15 16 17 18 19 20 21 22 23 24 25 26 27 28 29 30 31 32 33 34 35 36 37 38 39 40 41 42 43 44 45 46 47 48 49
000
ASUS45 KCYS 230610
RWRWY

WYOMING REGIONAL WEATHER ROUNDUP
NATIONAL WEATHER SERVICE CHEYENNE WY
1200 AM MDT TUE SEP 23 2014

NOTE:  "FAIR" INDICATES FEW OR NO CLOUDS BELOW 12,000 FEET
WITH NO SIGNIFICANT WEATHER AND/OR OBSTRUCTIONS TO VISIBILITY.

WYZ001-230700-
YELLOWSTONE NATIONAL PARK

CITY           SKY/WX    TMP DP  RH WIND       PRES   REMARKS
LK YELLOWSTONE   N/A     47  46  97 CALM      30.29S
6HR MIN TEMP:  47; 6HR MAX TEMP:  50; 6HR PCP:  0.02;

W YELLOWSTONE  NOT AVBL

$$
WYZ002>013-054>058-071-098>099-230700-
NORTHERN WYOMING

CITY           SKY/WX    TMP DP  RH WIND       PRES   REMARKS
JACKSON        MOCLDY    50  48  93 CALM      30.23S
CODY           CLEAR     64  45  48 W10G18    30.06S
GREYBULL       CLOUDY    61  46  57 SE5       29.98S
6HR MIN TEMP:  61; 6HR MAX TEMP:  77;

WORLAND        CLEAR     56  44  64 SE3       30.01R
6HR MIN TEMP:  55; 6HR MAX TEMP:  76;

SHERIDAN       PTCLDY    53  47  79 W6        29.96S
6HR MIN TEMP:  53; 6HR MAX TEMP:  71;

BUFFALO        MOCLDY    57  42  57 W7        30.02F
6HR MIN TEMP:  55; 6HR MAX TEMP:  68; 6HR PCP: TRACE;

GILLETTE       CLOUDY    60  52  74 S10       29.97S
6HR MIN TEMP:  60; 6HR MAX TEMP:  73; 6HR PCP:  0.03;

HULETT         CLOUDY    64  50  59 MISG      29.96
NEWCASTLE      FAIR      63  48  59 E12       29.97

$$
WYZ014>020-022>026-101>103-230700-
CENTRAL WYOMING

CITY           SKY/WX    TMP DP  RH WIND       PRES   REMARKS
BIG PINEY      CLOUDY    46  43  89 NW5       30.27S
6HR MIN TEMP:  44; 6HR MAX TEMP:  60; 6HR PCP: TRACE;

PINEDALE       CLOUDY    45  45 100 N3        30.27S
DUBOIS         MOCLDY    50  41  71 NW13      30.22S
LANDER         PTCLDY    57  40  52 E3        30.10F
6HR MIN TEMP:  57; 6HR MAX TEMP:  72;

RIVERTON       CLOUDY    62  40  44 NW20      30.10S
6HR MIN TEMP:  61; 6HR MAX TEMP:  71;

CASPER         MOCLDY    59  41  51 SW10      30.06S
6HR MIN TEMP:  56; 6HR MAX TEMP:  71;

DOUGLAS        PTCLDY    57  44  62 N5        30.04S
6HR MIN TEMP:  56; 6HR MAX TEMP:  70;


$$
WYZ021-027>030-104>119-230700-
SOUTHERN WYOMING

CITY           SKY/WX    TMP DP  RH WIND       PRES   REMARKS
EVANSTON       CLOUDY    55  44  66 S5        30.27S
6HR MIN TEMP:  54; 6HR MAX TEMP:  64;

KEMMERER       PTCLDY    46  41  81 NW8       30.28S
FORT BRIDGER   CLOUDY    57  46  65 SW7       30.29S
ROCK SPRINGS   PTCLDY    51  44  77 S3        30.25S
6HR MIN TEMP:  50; 6HR MAX TEMP:  64;

DIXON          CLOUDY    55  49  80 NE5       30.27S
RAWLINS        CLEAR     51  44  77 W16       30.21F
6HR MIN TEMP:  51; 6HR MAX TEMP:  62;

SARATOGA       CLOUDY    50  45  81 CALM      30.25S
LARAMIE        MOCLDY    51  42  71 W10       30.21F
6HR MIN TEMP:  50; 6HR MAX TEMP:  57;

CHEYENNE       PTCLDY    58  43  57 W17G26    30.15S
6HR MIN TEMP:  57; 6HR MAX TEMP:  72;

TORRINGTON     PTCLDY    54  51  90 SE6       30.00F
6HR MIN TEMP:  53; 6HR MAX TEMP:  65;

PINE BLUFFS    FAIR      54  46  76 SW3       30.11S

$$


USA.gov is the U.S. government's official web portal to all federal, state and local government web resources and services.